Time,TemperatureF,DewpointF,PressureIn,WindDirection,WindDirectionDegrees,WindSpeedMPH,WindSpeedGustMPH,Humidity,HourlyPrecipIn,Conditions,Clouds,dailyrainin,SolarRadiationWatts/m^2,SoftwareType,DateUTC
2013-02-09 00:10:00,27.4,21.0,30.31,NE,42,0.0,0.0,78,0.00,,,0.00,0,weatherlink.com 1.10,2013-02-09 05:10:00,
2013-02-09 00:25:00,27.0,22.0,30.31,NE,42,0.0,0.0,80,0.00,,,0.00,0,weatherlink.com 1.10,2013-02-09 05:25:00,
2013-02-09 00:40:00,26.6,21.0,30.31,NE,42,0.0,0.0,80,0.00,,,0.00,0,weatherlink.com 1.10,2013-02-09 05:40:00,
2013-02-09 00:55:00,26.1,22.0,30.30,NE,42,0.0,0.0,83,0.00,,,0.00,0,weatherlink.com 1.10,2013-02-09 05:55:00,
2013-02-09 01:10:00,25.8,21.0,30.31,NE,42,0.0,0.0,83,0.00,,,0.00,0,weatherlink.com 1.10,2013-02-09 06:10:00,
2013-02-09 01:25:00,25.5,22.0,30.31,NE,42,0.0,0.0,85,0.00,,,0.00,0,weatherlink.com 1.10,2013-02-09 06:25:00,
2013-02-09 01:40:00,25.1,21.0,30.32,NE,42,0.0,3.0,85,0.00,,,0.00,0,weatherlink.com 1.10,2013-02-09 06:40:00,
2013-02-09 01:55:00,24.8,21.0,30.32,NE,42,0.0,1.0,86,0.00,,,0.00,0,weatherlink.com 1.10,2013-02-09 06:55:00,
2013-02-09 02:11:00,24.4,21.0,30.32,NE,42,0.0,0.0,86,0.00,,,0.00,0,weatherlink.com 1.10,2013-02-09 07:11:00,
2013-02-09 02:26:00,24.3,21.0,30.33,NE,42,0.0,0.0,87,0.00,,,0.00,0,weatherlink.com 1.10,2013-02-09 07:26:00,
2013-02-09 02:41:00,23.9,21.0,30.33,NE,42,0.0,0.0,89,0.00,,,0.00,0,weatherlink.com 1.10,2013-02-09 07:41:00,
2013-02-09 02:56:00,23.6,21.0,30.33,NE,42,0.0,0.0,89,0.00,,,0.00,0,weatherlink.com 1.10,2013-02-09 07:56:00,
2013-02-09 03:10:00,23.3,21.0,30.32,NE,42,0.0,0.0,89,0.00,,,0.00,0,weatherlink.com 1.10,2013-02-09 08:10:00,
2013-02-09 03:25:00,23.2,21.0,30.32,NE,42,0.0,0.0,90,0.00,,,0.00,0,weatherlink.com 1.10,2013-02-09 08:25:00,
2013-02-09 03:40:00,22.9,20.0,30.32,NE,42,0.0,1.0,90,0.00,,,0.00,0,weatherlink.com 1.10,2013-02-09 08:40:00,
2013-02-09 03:55:00,23.0,21.0,30.32,NE,42,0.0,0.0,91,0.00,,,0.00,0,weatherlink.com 1.10,2013-02-09 08:55:00,
2013-02-09 04:10:00,23.2,21.0,30.33,NE,42,0.0,0.0,90,0.00,,,0.00,0,weatherlink.com 1.10,2013-02-09 09:10:00,
2013-02-09 04:26:00,23.2,21.0,30.33,NE,42,0.0,0.0,90,0.00,,,0.00,0,weatherlink.com 1.10,2013-02-09 09:26:00,
2013-02-09 04:41:00,23.2,21.0,30.34,NE,42,0.0,0.0,91,0.00,,,0.00,0,weatherlink.com 1.10,2013-02-09 09:41:00,
2013-02-09 04:55:00,22.8,20.0,30.34,NE,42,0.0,0.0,90,0.00,,,0.00,0,weatherlink.com 1.10,2013-02-09 09:55:00,
2013-02-09 05:10:00,22.3,20.0,30.34,NE,42,0.0,0.0,91,0.00,,,0.00,0,weatherlink.com 1.10,2013-02-09 10:10:00,
2013-02-09 05:25:00,22.3,20.0,30.34,NE,42,0.0,0.0,92,0.00,,,0.00,0,weatherlink.com 1.10,2013-02-09 10:25:00,
2013-02-09 05:41:00,21.7,20.0,30.34,NE,42,0.0,0.0,91,0.00,,,0.00,0,weatherlink.com 1.10,2013-02-09 10:41:00,
2013-02-09 05:56:00,21.9,20.0,30.34,NE,42,0.0,0.0,92,0.00,,,0.00,0,weatherlink.com 1.10,2013-02-09 10:56:00,
2013-02-09 06:11:00,21.6,20.0,30.33,NE,42,0.0,0.0,92,0.00,,,0.00,0,weatherlink.com 1.10,2013-02-09 11:11:00,
2013-02-09 06:26:00,21.3,19.0,30.33,NE,42,0.0,1.0,92,0.00,,,0.00,0,weatherlink.com 1.10,2013-02-09 11:26:00,
2013-02-09 06:41:00,21.2,19.0,30.34,NE,42,0.0,2.0,92,0.00,,,0.00,0,weatherlink.com 1.10,2013-02-09 11:41:00,
2013-02-09 06:56:00,21.8,20.0,30.34,NE,42,0.0,0.0,93,0.00,,,0.00,0,weatherlink.com 1.10,2013-02-09 11:56:00,
2013-02-09 07:11:00,21.6,20.0,30.35,NE,42,0.0,0.0,93,0.00,,,0.00,0,weatherlink.com 1.10,2013-02-09 12:11:00,
2013-02-09 07:26:00,21.3,20.0,30.36,NE,42,0.0,0.0,93,0.00,,,0.00,0,weatherlink.com 1.10,2013-02-09 12:26:00,
2013-02-09 07:41:00,21.1,19.0,30.36,NE,42,0.0,0.0,92,0.00,,,0.00,0,weatherlink.com 1.10,2013-02-09 12:41:00,
2013-02-09 07:56:00,20.7,19.0,30.36,NE,42,0.0,0.0,92,0.00,,,0.00,11,weatherlink.com 1.10,2013-02-09 12:56:00,
2013-02-09 08:11:00,21.2,20.0,30.36,NE,42,0.0,0.0,93,0.00,,,0.00,25,weatherlink.com 1.10,2013-02-09 13:11:00,
2013-02-09 08:26:00,22.4,21.0,30.36,NE,42,0.0,0.0,93,0.00,,,0.00,39,weatherlink.com 1.10,2013-02-09 13:26:00,
2013-02-09 08:41:00,23.0,21.0,30.36,NE,42,2.0,2.0,92,0.00,,,0.00,70,weatherlink.com 1.10,2013-02-09 13:41:00,
2013-02-09 08:56:00,24.0,22.0,30.36,ESE,119,3.0,7.0,91,0.00,,,0.00,116,weatherlink.com 1.10,2013-02-09 13:56:00,
2013-02-09 09:11:00,24.9,22.0,30.36,SE,132,4.0,6.0,89,0.00,,,0.00,153,weatherlink.com 1.10,2013-02-09 14:11:00,
2013-02-09 09:41:00,26.2,22.0,30.36,SE,133,6.0,9.0,84,0.00,,,0.00,246,weatherlink.com 1.10,2013-02-09 14:41:00,
2013-02-09 09:56:00,26.9,22.0,30.36,ESE,120,8.0,9.0,83,0.00,,,0.00,260,weatherlink.com 1.10,2013-02-09 14:56:00,
2013-02-09 10:11:00,27.8,23.0,30.36,SSE,162,4.0,10.0,81,0.00,,,0.00,281,weatherlink.com 1.10,2013-02-09 15:11:00,
2013-02-09 10:26:00,28.0,23.0,30.35,SSE,160,3.0,9.0,81,0.00,,,0.00,357,weatherlink.com 1.10,2013-02-09 15:26:00,
2013-02-09 10:42:00,28.3,23.0,30.35,South,187,4.0,9.0,80,0.00,,,0.00,455,weatherlink.com 1.10,2013-02-09 15:42:00,
2013-02-09 10:56:00,29.3,23.0,30.35,SE,129,7.0,9.0,78,0.00,,,0.00,480,weatherlink.com 1.10,2013-02-09 15:56:00,
2013-02-09 11:11:00,29.5,23.0,30.34,SSE,156,5.0,10.0,77,0.00,,,0.00,517,weatherlink.com 1.10,2013-02-09 16:11:00,
2013-02-09 11:27:00,30.1,24.0,30.35,SSE,150,2.0,9.0,77,0.00,,,0.00,557,weatherlink.com 1.10,2013-02-09 16:27:00,
2013-02-09 11:42:00,30.6,24.0,30.36,SSE,164,5.0,9.0,75,0.00,,,0.00,584,weatherlink.com 1.10,2013-02-09 16:42:00,
2013-02-09 11:57:00,30.5,23.0,30.35,SE,129,4.0,12.0,75,0.00,,,0.00,612,weatherlink.com 1.10,2013-02-09 16:57:00,
2013-02-09 12:12:00,30.8,24.0,30.34,SE,137,7.0,13.0,76,0.00,,,0.00,621,weatherlink.com 1.10,2013-02-09 17:12:00,
2013-02-09 12:27:00,30.8,24.0,30.34,SE,135,6.0,12.0,75,0.00,,,0.00,283,weatherlink.com 1.10,2013-02-09 17:27:00,
2013-02-09 12:42:00,31.0,24.0,30.33,SSE,168,1.0,12.0,75,0.00,,,0.00,371,weatherlink.com 1.10,2013-02-09 17:42:00,
2013-02-09 12:57:00,31.5,24.0,30.32,SE,129,8.0,12.0,74,0.00,,,0.00,661,weatherlink.com 1.10,2013-02-09 17:57:00,
2013-02-09 13:12:00,31.4,25.0,30.32,SE,137,2.0,13.0,77,0.00,,,0.00,357,weatherlink.com 1.10,2013-02-09 18:12:00,
2013-02-09 13:27:00,32.0,26.0,30.30,SSE,158,4.0,10.0,77,0.00,,,0.00,404,weatherlink.com 1.10,2013-02-09 18:27:00,
2013-02-09 13:42:00,32.6,26.0,30.29,SSE,168,6.0,13.0,75,0.00,,,0.00,650,weatherlink.com 1.10,2013-02-09 18:42:00,
2013-02-09 13:57:00,33.0,26.0,30.28,SSW,213,5.0,13.0,74,0.00,,,0.00,612,weatherlink.com 1.10,2013-02-09 18:57:00,
2013-02-09 14:12:00,33.5,25.0,30.27,SE,137,8.0,13.0,72,0.00,,,0.00,596,weatherlink.com 1.10,2013-02-09 19:12:00,
2013-02-09 14:27:00,33.9,26.0,30.26,SE,143,5.0,11.0,72,0.00,,,0.00,548,weatherlink.com 1.10,2013-02-09 19:27:00,
2013-02-09 14:42:00,34.0,26.0,30.25,South,177,6.0,13.0,73,0.00,,,0.00,561,weatherlink.com 1.10,2013-02-09 19:42:00,
2013-02-09 14:57:00,34.2,26.0,30.25,SE,146,3.0,14.0,71,0.00,,,0.00,527,weatherlink.com 1.10,2013-02-09 19:57:00,
2013-02-09 15:12:00,35.0,26.0,30.25,SE,134,6.0,14.0,69,0.00,,,0.00,425,weatherlink.com 1.10,2013-02-09 20:12:00,
2013-02-09 15:27:00,35.0,26.0,30.24,SSE,152,11.0,15.0,70,0.00,,,0.00,272,weatherlink.com 1.10,2013-02-09 20:27:00,
2013-02-09 15:42:00,35.0,26.0,30.23,SSE,148,8.0,14.0,70,0.00,,,0.00,443,weatherlink.com 1.10,2013-02-09 20:42:00,
2013-02-09 15:58:00,35.2,26.0,30.25,SE,135,4.0,14.0,70,0.00,,,0.00,394,weatherlink.com 1.10,2013-02-09 20:58:00,
2013-02-09 16:13:00,35.3,26.0,30.24,SE,141,11.0,15.0,68,0.00,,,0.00,353,weatherlink.com 1.10,2013-02-09 21:13:00,
2013-02-09 16:27:00,35.8,26.0,30.23,SSE,150,5.0,12.0,68,0.00,,,0.00,302,weatherlink.com 1.10,2013-02-09 21:27:00,
2013-02-09 16:43:00,35.7,26.0,30.23,SE,143,11.0,14.0,68,0.00,,,0.00,260,weatherlink.com 1.10,2013-02-09 21:43:00,
2013-02-09 16:58:00,35.6,26.0,30.21,ESE,110,8.0,10.0,68,0.00,,,0.00,213,weatherlink.com 1.10,2013-02-09 21:58:00,
2013-02-09 17:13:00,35.5,26.0,30.21,SSE,152,5.0,11.0,68,0.00,,,0.00,156,weatherlink.com 1.10,2013-02-09 22:13:00,
2013-02-09 17:28:00,35.1,26.0,30.20,SE,132,6.0,9.0,69,0.00,,,0.00,42,weatherlink.com 1.10,2013-02-09 22:28:00,
2013-02-09 17:43:00,34.6,26.0,30.19,ESE,123,1.0,10.0,71,0.00,,,0.00,49,weatherlink.com 1.10,2013-02-09 22:43:00,
2013-02-09 17:58:00,34.1,26.0,30.19,SE,143,3.0,9.0,72,0.00,,,0.00,18,weatherlink.com 1.10,2013-02-09 22:58:00,
2013-02-09 18:13:00,33.6,26.0,30.19,ESE,123,3.0,6.0,73,0.00,,,0.00,5,weatherlink.com 1.10,2013-02-09 23:13:00,
2013-02-09 18:28:00,33.2,26.0,30.19,ESE,103,5.0,7.0,75,0.00,,,0.00,0,weatherlink.com 1.10,2013-02-09 23:28:00,
2013-02-09 18:43:00,32.6,26.0,30.19,ESE,118,7.0,10.0,77,0.00,,,0.00,0,weatherlink.com 1.10,2013-02-09 23:43:00,
2013-02-09 18:58:00,32.1,26.0,30.19,SE,137,4.0,8.0,78,0.00,,,0.00,0,weatherlink.com 1.10,2013-02-09 23:58:00,
2013-02-09 19:13:00,31.8,26.0,30.19,ESE,102,4.0,8.0,79,0.00,,,0.00,0,weatherlink.com 1.10,2013-02-10 00:13:00,
2013-02-09 19:28:00,31.5,26.0,30.19,ESE,119,5.0,10.0,80,0.00,,,0.00,0,weatherlink.com 1.10,2013-02-10 00:28:00,
2013-02-09 19:43:00,31.4,26.0,30.19,ESE,102,3.0,9.0,81,0.00,,,0.00,0,weatherlink.com 1.10,2013-02-10 00:43:00,
2013-02-09 19:58:00,31.2,26.0,30.19,ESE,120,4.0,8.0,81,0.00,,,0.00,0,weatherlink.com 1.10,2013-02-10 00:58:00,
2013-02-09 20:13:00,31.1,26.0,30.19,SE,144,2.0,8.0,82,0.00,,,0.00,0,weatherlink.com 1.10,2013-02-10 01:13:00,
2013-02-09 20:28:00,30.9,26.0,30.18,ESE,122,4.0,7.0,83,0.00,,,0.00,0,weatherlink.com 1.10,2013-02-10 01:28:00,
2013-02-09 20:43:00,30.6,26.0,30.18,SE,131,2.0,7.0,83,0.00,,,0.00,0,weatherlink.com 1.10,2013-02-10 01:43:00,
2013-02-09 20:58:00,30.5,26.0,30.17,SE,124,4.0,9.0,83,0.00,,,0.00,0,weatherlink.com 1.10,2013-02-10 01:58:00,
2013-02-09 21:13:00,30.3,26.0,30.17,SE,136,3.0,7.0,84,0.00,,,0.00,0,weatherlink.com 1.10,2013-02-10 02:13:00,
2013-02-09 21:28:00,30.5,26.0,30.17,SE,133,3.0,7.0,84,0.00,,,0.00,0,weatherlink.com 1.10,2013-02-10 02:28:00,
2013-02-09 21:43:00,30.6,26.0,30.18,ESE,108,5.0,8.0,83,0.00,,,0.00,0,weatherlink.com 1.10,2013-02-10 02:43:00,
2013-02-09 21:58:00,30.7,26.0,30.17,SE,127,5.0,8.0,83,0.00,,,0.00,0,weatherlink.com 1.10,2013-02-10 02:58:00,
2013-02-09 22:13:00,30.9,26.0,30.16,ESE,117,5.0,9.0,82,0.00,,,0.00,0,weatherlink.com 1.10,2013-02-10 03:13:00,
2013-02-09 22:28:00,31.1,26.0,30.16,SE,127,9.0,12.0,81,0.00,,,0.00,0,weatherlink.com 1.10,2013-02-10 03:28:00,
2013-02-09 22:43:00,31.5,26.0,30.15,SE,129,8.0,10.0,80,0.00,,,0.00,0,weatherlink.com 1.10,2013-02-10 03:43:00,
2013-02-09 22:58:00,31.8,26.0,30.15,ESE,120,5.0,9.0,78,0.00,,,0.00,0,weatherlink.com 1.10,2013-02-10 03:58:00,
2013-02-09 23:14:00,32.2,25.0,30.14,SE,143,10.0,11.0,76,0.00,,,0.00,0,weatherlink.com 1.10,2013-02-10 04:14:00,
2013-02-09 23:29:00,32.4,25.0,30.13,SE,134,8.0,12.0,75,0.00,,,0.00,0,weatherlink.com 1.10,2013-02-10 04:29:00,
2013-02-09 23:43:00,32.5,25.0,30.12,SSE,149,3.0,10.0,73,0.00,,,0.00,0,weatherlink.com 1.10,2013-02-10 04:43:00,
2013-02-09 23:58:00,32.6,24.0,30.12,ESE,114,8.0,13.0,72,0.00,,,0.00,0,weatherlink.com 1.10,2013-02-10 04:58:00,